Reflectivity
-20 -20 -20 -20 -20 -20 -20 -20 -20 -20 -20 -20 -20 -20 -20 -20 -20 -20 -20 -20 -20 -20 -20 -20 -20 -20 -20 -20 -20 -20 -20 -20 -20 -20 -20 -20 -20 -20
-20 -20 -20 -20 -20 -20 -20 -20 -20 -20 -20 -20 -20 -20 -20 -20 -20 -20 -20 -20 -20 -20 -20 -20 -20 -20 -20 -20 -20 -20 -20 -20 -20 -20 -20 -20 -20 -20
-20 -20 -20 -20 -20 -20 -20 -20 -20 -20 -20 -20 -20 -20 -20 -20 -20 -20 -20 -20 -20 -20 -20 -20 -20 -20 -20 -20 -20 -20 -20 -20 -20 -20 -20 -20 -20 -20
-20 -20 -20 -20 -20 -20 -20 -20 -20 -20 -20 -20 -20 -20 -20 -20 -20 -20 -20 -20 -20 -20 -20 -20 -20 -20 -20 -20 -20 -20 -20 -20 -20 -20 -20 -20 -20 -20
8 8 -19 -20 -20 -20 -20 -20 -20 -20 -20 -20 -20 -20 -20 -20 -20 -20 -20 -20 -20 -20 -20 -20 -20 -20 -20 -20 -20 -20 -20 -20 -20 -20 -20 -20 -20 -20
15 -9 -20 -20 -20 -20 -20 -20 -20 -20 -20 -20 -20 -20 -20 -20 -20 -20 -20 -20 -20 -20 -20 -20 -20 -20 -20 -20 -20 10 5 -8 -20 -20 -20 -20 -20 -20
11 -6 -14 -20 -20 -20 -20 -20 -20 -20 -20 -20 -20 -20 -20 -20 -20 -20 -20 -20 -20 -20 -20 -20 -20 -20 -20 -20 -20 12 11 9 2 -20 -20 -20 -20 -20
9 -13 -9 -20 -20 -20 -20 -20 -20 -20 -20 -20 -20 -20 -20 -20 -20 -20 -20 -20 -20 -20 -20 -20 -20 -20 -20 -20 -20 -13 -20 -20 -20 -20 -20 -20 -20 -20
-18 -19 -18 -20 -20 -20 -20 -20 -20 -20 -20 -20 -20 -20 -20 -20 -20 -20 -20 -20 -20 -20 -20 -20 -20 -20 -20 -20 -20 -20 -20 -20 -20 -20 -20 -20 -20 -20
-18 -18 -20 -20 -20 -20 -20 -20 -20 -20 -20 -20 -20 -20 -20 -20 -20 -20 -20 -20 -20 -20 -20 -20 -20 -20 -20 -20 -20 -20 -20 -20 -20 -20 -20 -20 -20 -20
-20 -17 -6 -20 -20 -20 -20 -20 -20 -20 -20 -20 -20 -20 -20 -18 -20 -20 -20 -20 -20 -20 -20 -20 -20 -20 -20 -20 -20 -20 -20 -20 -20 -20 -20 -20 -20 -20
-20 -20 -20 -20 -20 -20 -20 -20 -20 -20 -20 -20 -20 -20 -20 -20 -20 -20 -20 -20 -20 -20 -20 -20 -20 -20 -20 -20 -20 -20 -20 -20 -20 -20 -20 -20 -20 -20
-18 -9 -20 -20 -20 -20 -20 -20 -20 -20 -20 -20 -20 -20 -20 -20 -20 -20 -20 -20 -20 -20 -20 -20 -20 -20 -20 -20 -20 -20 -20 -20 -20 -20 -20 -20 -20 -20
-2 1 -13 -20 -20 -20 -20 -20 -17 -10 -20 -20 -20 -20 -20 -20 -20 -20 -20 -20 -20 -20 -20 -20 -20 -20 -20 -20 -11 -20 -20 -20 -20 -20 -20 -20 -20 -20
-20 -20 -20 -20 -20 -20 -7 2 -18 -20 -20 -20 -20 -20 -20 -20 -20 -20 -20 -20 -20 -20 -20 -20 -20 -20 -20 -20 -20 -20 -20 -20 -20 -20 -20 -20 -20 -20
-20 -20 -20 -20 -20 -20 -12 -20 -20 -20 -20 -20 -20 -20 -20 -20 -20 -20 -20 -20 -20 -20 -20 -20 -20 -20 -20 -20 -20 -20 -20 -20 -20 -20 -20 -20 -20 -20
-20 -20 -20 -20 -20 -20 -20 -20 -20 -20 -20 -20 -20 -20 -20 -20 -20 -20 -20 -20 -20 -20 -20 -20 -20 -20 -20 -20 -20 -20 -20 -20 -20 -20 -20 -20 -20 -20
4 -20 -20 -20 -20 -20 -20 -20 -20 -20 -20 -20 -20 -20 -20 -20 -20 -20 -20 -20 -20 -20 -20 -20 -20 -20 -20 -20 -20 -20 -20 -20 -20 -20 -20 -20 -20 -20
-5 -20 -20 -20 -20 -20 -20 -20 -20 -20 -20 -20 -20 -20 -20 -20 -20 -20 -20 -20 -20 -20 -20 -20 -20 -20 -20 -20 -20 -20 -20 -20 -20 -20 -20 -20 -20 -20
-20 -20 -20 -20 -20 -20 -20 -20 -20 -20 -20 -20 -20 -20 -20 -20 -20 -20 -20 -20 -20 -20 -20 -20 -20 -20 -20 -18 -2 -20 -20 -20 -20 -20 -20 -20 -20 -20
5 -11 -20 -19 -20 -20 -20 -20 -20 -20 -20 -20 -20 -20 -20 -20 -20 -20 -20 -20 -20 -20 -20 -20 -20 -20 -20 -20 -20 -20 -20 -20 -20 -20 -20 -3 -16 -20
-20 -20 -6 -16 -17 -20 -20 -20 -20 -20 -20 -20 -20 -20 -20 -20 -20 -20 -20 -20 -20 -20 -20 -20 -20 -20 -20 -20 -20 -20 -20 -20 -20 -20 -20 -19 -8 -17
-20 -18 -19 -20 -20 -20 -20 -20 -20 -20 -20 -20 -20 -20 -20 -20 -20 -20 -20 -20 -20 -20 -20 -20 -20 -20 -20 -20 -20 -20 -20 -20 -20 -20 -20 -20 -20 -20
Wind_Speed
5 5 4 3 4 4 3 2 4 3 1 1 1 3 4 4 9 5 5 16 17 17 17 18 20 20 21 22 23 23 22 23 23 23 24 25 26 27
4 6 4 2 4 4 4 4 3 3 3 0 1 3 4 5 8 6 6 12 17 17 17 19 19 19 20 21 21 22 22 23 22 23 24 25 26 27
4 6 5 3 4 4 3 3 4 3 3 1 1 2 4 5 5 5 5 5 5 15 18 19 19 20 21 20 20 20 21 21 20 23 24 25 26 27
5 6 5 4 5 4 3 4 3 3 3 2 2 3 2 2 4 4 5 6 4 11 18 19 19 19 20 21 19 19 19 18 21 22 24 25 26 27
6 6 6 6 4 3 3 4 3 3 3 3 1 1 1 1 2 2 3 4 4 9 15 17 19 20 20 20 18 18 16 19 21 22 24 25 26 27
4 5 6 6 6 5 5 5 3 4 3 3 2 0 1 2 1 2 4 2 4 3 10 13 15 17 19 20 18 16 15 19 23 24 24 25 25 26
5 4 4 6 10 9 5 4 5 4 3 3 2 1 1 2 2 2 2 3 3 2 5 6 4 5 6 13 14 18 19 20 22 23 25 24 25 25
6 5 5 9 9 11 10 11 8 5 4 3 3 2 1 1 1 2 2 3 3 2 3 5 3 5 4 5 16 18 19 21 21 23 23 25 24 25
6 6 4 4 6 4 9 10 8 7 6 5 3 3 2 2 1 2 2 1 2 4 2 3 3 4 4 6 12 18 20 20 22 22 23 22 25 25
6 6 6 6 6 6 5 5 4 2 1 3 4 4 4 4 4 2 2 3 3 3 2 2 2 3 4 4 9 18 18 19 21 22 22 23 25 24
5 5 6 6 10 12 6 5 4 3 3 5 5 5 4 5 4 1 2 1 2 2 3 2 3 4 3 3 3 17 18 18 21 21 20 23 24 22
4 4 13 8 13 13 6 5 4 4 3 1 1 2 3 3 4 2 1 1 1 2 0 4 2 4 4 2 7 4 6 13 19 17 18 22 23 8
5 5 4 15 14 14 11 6 6 5 4 4 2 1 2 2 2 1 2 3 1 2 4 2 2 2 2 7 3 6 4 7 6 7 13 18 21 17
6 5 5 13 12 11 8 10 10 5 3 2 2 1 1 1 1 1 2 2 3 4 5 2 3 2 3 7 7 5 6 7 3 4 5 10 16 17
5 9 13 13 13 10 12 10 7 4 3 2 3 2 2 1 2 2 2 2 2 3 2 1 2 2 2 5 7 8 9 4 5 5 6 6 5 6
12 9 10 9 8 8 5 4 3 3 3 2 2 2 1 1 1 1 1 1 1 3 4 3 4 2 3 4 4 8 5 4 5 6 6 5 5 5
9 3 2 2 3 3 3 3 3 2 2 2 2 2 2 2 1 1 1 0 1 1 3 3 4 4 4 5 4 4 5 4 5 5 5 7 6 6
5 4 3 4 5 4 4 4 3 3 3 3 3 2 2 2 1 1 1 2 1 2 2 2 2 4 4 3 8 4 3 4 4 6 5 5 6 7
5 6 7 6 5 5 4 4 3 3 3 2 2 3 3 3 3 1 2 2 1 2 3 2 2 0 4 5 3 8 5 7 8 7 5 4 5 8
4 8 7 6 5 5 5 4 3 3 2 3 3 3 3 3 2 2 3 3 2 2 2 2 2 2 3 4 7 7 12 8 6 7 7 6 6 14
4 6 6 6 6 5 5 4 4 3 3 2 2 3 3 3 3 3 4 9 9 2 2 3 5 11 1 2 5 5 4 10 11 8 7 8 8 6
3 4 4 5 5 5 4 3 3 2 2 2 2 3 3 3 4 4 4 4 4 4 5 4 3 0 1 3 8 10 7 6 10 17 15 13 7 7
4 4 4 4 4 4 3 3 4 3 3 3 3 3 4 3 5 5 5 5 5 4 3 3 2 1 4 5 9 7 10 9 6 8 8 14 14 16
Wind_Direction
102 97 89 66 68 77 85 107 135 144 142 10 64 4 0 11 16 8 352 10 8 9 10 15 10 3 0 1 360 1 1 2 2 3 6 3 1 0
117 106 88 76 73 66 79 78 70 120 120 164 42 2 2 7 10 7 360 12 12 14 22 13 5 3 1 0 1 1 360 360 359 6 7 3 1 360
125 124 116 113 96 78 71 71 71 79 108 117 78 337 25 7 354 352 355 0 356 17 18 14 9 7 4 1 1 1 359 358 3 7 5 2 358 358
146 126 129 122 105 99 92 88 89 64 109 104 13 356 19 349 328 345 355 2 344 9 15 10 9 9 9 6 3 1 357 1 10 7 5 0 356 356
150 147 147 138 132 124 110 110 105 92 85 111 56 355 311 329 324 315 324 325 345 5 4 4 6 8 9 9 6 360 357 16 10 6 2 357 355 354
140 149 152 157 152 142 128 132 122 110 101 101 112 68 274 306 303 332 354 329 330 0 350 359 360 4 7 7 356 4 14 9 4 1 356 354 354 352
152 153 154 167 162 158 140 149 135 120 121 111 103 60 336 345 352 323 312 314 310 15 341 334 345 343 353 353 349 8 9 359 356 355 351 354 354 353
162 169 169 174 166 160 153 161 158 142 140 145 143 162 242 228 287 313 314 351 350 316 351 310 3 338 329 335 350 10 10 5 359 353 352 353 354 352
166 162 173 172 161 150 163 163 174 169 159 161 155 168 187 213 238 294 303 279 267 291 329 300 339 322 316 337 347 7 6 2 356 353 353 356 354 352
163 166 165 158 160 141 135 144 153 159 170 162 175 203 210 257 206 217 234 273 269 278 200 293 321 296 304 316 350 354 357 356 354 353 353 354 352 352
164 168 168 169 185 171 155 163 174 220 251 247 232 237 285 326 349 88 357 358 303 302 27 338 319 308 289 294 319 342 345 345 346 349 352 349 349 352
170 186 189 180 193 189 168 169 179 212 194 173 342 349 24 342 2 120 169 146 330 318 167 344 317 349 317 317 339 318 317 326 338 343 349 350 349 350
179 184 202 192 195 197 171 169 189 192 201 174 203 16 354 344 2 77 156 156 177 240 292 33 319 307 251 310 311 309 314 323 320 319 339 344 347 353
187 180 188 196 192 194 195 189 206 156 138 133 159 187 234 325 348 319 288 219 227 234 285 177 261 206 301 308 307 322 315 301 299 307 329 333 340 345
171 185 189 197 196 198 188 190 149 132 145 143 171 187 186 236 283 307 299 299 314 288 297 261 201 265 283 291 300 317 317 304 318 327 329 331 324 324
191 195 191 192 172 166 172 149 140 157 170 162 165 169 202 183 234 201 214 354 48 310 322 339 316 197 295 257 273 295 298 305 319 317 315 313 311 311
165 121 115 115 140 148 156 159 155 152 147 163 169 182 199 186 216 200 189 98 139 285 301 314 320 279 249 247 295 273 291 295 302 307 321 320 312 303
140 148 158 167 175 176 171 172 179 209 203 189 189 191 193 191 208 233 204 173 235 274 274 271 307 342 339 306 227 277 281 290 311 314 311 306 309 313
161 175 185 188 188 180 180 168 183 204 199 183 180 194 197 193 261 182 225 233 246 246 264 263 287 245 315 302 269 295 333 310 308 310 304 288 289 302
164 189 196 181 182 182 176 175 187 181 187 196 192 191 197 184 183 202 225 208 230 241 259 281 242 218 242 274 302 305 295 295 298 301 306 306 277 290
165 179 181 181 178 172 163 171 173 175 190 192 199 196 204 173 209 211 226 267 277 189 235 239 253 285 228 315 310 293 287 289 299 295 297 305 306 304
141 142 148 152 151 153 159 166 167 180 189 193 206 203 212 205 210 220 225 223 239 246 249 255 266 319 69 266 293 298 293 295 301 300 294 284 285 291
103 100 107 116 139 151 157 173 179 194 196 199 200 216 221 210 231 228 225 224 229 237 237 256 248 228 248 264 282 287 289 296 301 303 298 302 300 293